カタログに戻る

STARLINK-11659

運用中通信VLEO
NORAD 63266·PAYLOAD·🇺🇸 United States

打ち上げ Mar 15, 2025 から Cape Canaveral Space Force Station

Loading…

次のパス (今後24時間)

TLE

最新Source: CelesTrak SupGP

元期: Sep 14, 2026, 22:21 UTC

1 63266C 25053B   26257.93173611  .00095151  00000+0  73884-3 0  2571
2 63266  43.0008  51.4261 0001727 275.8190  84.1335 15.70797459    17

AllMySatでSTARLINK-11659をリアルタイム追跡

Download on the App Store